This is the latest recevied weather packets stored in our database for station/object KC1TEM-13. If no packets are shown the sender has not sent any weather packets the latest 1 day(s).
| Time | Temp. | Humidity | Pressure | Rain* | Wind** | Luminosity | Snow |
|---|---|---|---|---|---|---|---|
| 1778018956 | 25.56° C | 37% | 1005.5 hPa | 0 mm | 4.47 m/s, 210° | 82 W/m² | - |
| 1778018653 | 26.11° C | 37% | 1005.2 hPa | 0 mm | 0.45 m/s, 204° | 88 W/m² | - |
| 1778018351 | 26.11° C | 35% | 1005.3 hPa | 0 mm | 1.79 m/s, 146° | 93 W/m² | - |
| 1778018049 | 26.11° C | 35% | 1005.2 hPa | 0 mm | 1.79 m/s, 210° | 94 W/m² | - |
| 1778017747 | 26.11° C | 35% | 1005 hPa | 0 mm | 1.79 m/s, 239° | 106 W/m² | - |
| 1778017444 | 26.67° C | 34% | 1004.9 hPa | 0 mm | 5.81 m/s, 203° | 111 W/m² | - |
| 1778017141 | 26.67° C | 34% | 1005.1 hPa | 0 mm | 0.89 m/s, 180° | 112 W/m² | - |
| 1778016839 | 27.22° C | 33% | 1005 hPa | 0 mm | 1.79 m/s, 213° | 176 W/m² | - |
| 1778016534 | 27.22° C | 32% | 1004.9 hPa | 0 mm | 3.58 m/s, 209° | 212 W/m² | - |
| 1778016232 | 27.78° C | 33% | 1004.8 hPa | 0 mm | 2.24 m/s, 245° | 177 W/m² | - |
| 1778015928 | 27.78° C | 31% | 1004.8 hPa | 0 mm | 1.34 m/s, 183° | 151 W/m² | - |
| 1778015626 | 28.33° C | 30% | 1005 hPa | 0 mm | 3.13 m/s, 203° | 260 W/m² | - |
| 1778015322 | 27.78° C | 30% | 1004.8 hPa | 0 mm | 0.89 m/s, 163° | 293 W/m² | - |
| 1778015019 | 27.78° C | 29% | 1004.8 hPa | 0 mm | 3.58 m/s, 201° | 286 W/m² | - |
| 1778014715 | 27.78° C | 30% | 1004.9 hPa | 0 mm | 0.89 m/s, 200° | 245 W/m² | - |
| 1778014414 | 27.78° C | 30% | 1004.9 hPa | 0 mm | 4.47 m/s, 239° | 194 W/m² | - |
| 1778014110 | 28.33° C | 29% | 1004.8 hPa | 0 mm | 2.24 m/s, 171° | 215 W/m² | - |
| 1778013808 | 28.33° C | 30% | 1004.8 hPa | 0 mm | 1.79 m/s, 173° | 330 W/m² | - |
| 1778013506 | 28.33° C | 30% | 1004.6 hPa | 0 mm | 2.24 m/s, 219° | 202 W/m² | - |
| 1778013202 | 28.89° C | 30% | 1004.8 hPa | 0 mm | 0.89 m/s, 212° | 290 W/m² | - |
| 1778012898 | 28.89° C | 29% | 1004.8 hPa | 0 mm | 1.79 m/s, 256° | 376 W/m² | - |
| 1778012594 | 28.33° C | 30% | 1004.9 hPa | 0 mm | 2.24 m/s, 221° | 387 W/m² | - |
| 1778012291 | 28.33° C | 30% | 1005.3 hPa | 0 mm | 0.89 m/s, 218° | 475 W/m² | - |
| 1778011988 | 28.33° C | 30% | 1005.1 hPa | 0 mm | 2.24 m/s, 239° | 479 W/m² | - |
| 1778011687 | 28.33° C | 31% | 1005 hPa | 0 mm | 1.34 m/s, 218° | 520 W/m² | - |
* Rain latest hour (hover to see other rain measurements)
** Current wind speed in m/s (hover to see current wind gust speed)